Weather History for KHYS - November, 2013

Change the Weather History Date:

Friday, November 8, 2013

  Actual Average Record
Temperature  
Mean Temperature 53 °F -  
Max Temperature 69 °F 53 °F 87 °F (2006)
Min Temperature 37 °F 31 °F 23 °F (2000)
Degree Days  
Heating Degree Days 12    
Growing Degree Days 3 (Base 50)    
Moisture  
Dew Point 33 °F    
Average Humidity 54    
Maximum Humidity 87    
Minimum Humidity 28    
Precipitation  
Precipitation 0.00 in - - ()
Sea Level Pressure  
Sea Level Pressure 29.92 in    
Wind  
Wind Speed 13 mph (SSW)    
Max Wind Speed 32 mph    
Max Gust Speed 37 mph    
Visibility 10 miles    
Events      
Averages and records for this station are not official NWS values.
T = Trace of Precipitation, MM = Missing Value Source: NWS Daily Summary

Daily Weather History Graph

Daily Weather History Graph

Search for Another Location

Airport or City:

Trip Planner

Search our weather history database for the weather conditions in past years. The results will help you decide how hot, cold, wet, or windy it might be!

Date:

Astronomy

Nov. 08, 2013 Rise Set
Actual Time 7:12 AM CST 5:29 PM CST
Civil Twilight 6:44 AM CST 5:57 PM CST
Nautical Twilight 6:12 AM CST 6:28 PM CST
Astronomical Twilight 5:41 AM CST 7:00 PM CST
Moon 12:09 PM CST (11/8) 10:51 PM CST (11/8)
Length of Visible Light 11h 12m
Length of Day
10h 16m
Waxing Crescent, 33% of the Moon is Illuminated
Nov 8
Waxing Crescent
Nov 9
First Quarter
Nov 17
Full
Nov 25
Last Quarter
Dec 2
New

Hourly Weather History & Observations

Time (CST) Temp. Windchill Dew Point Humidity Pressure Visibility Wind Dir Wind Speed Gust Speed Precip Events Conditions
12:15 AM 37.4 °F 31.4 °F 32.0 °F 81% 30.19 in 10.0 mi SE 8.1 mph - N/A   Clear
12:35 AM 37.4 °F 30.8 °F 33.8 °F 87% 30.18 in 10.0 mi SE 9.2 mph - N/A   Clear
12:55 AM 37.4 °F 29.8 °F 33.8 °F 87% 30.16 in 10.0 mi SE 11.5 mph - N/A   Clear
1:15 AM 39.2 °F 32.0 °F 33.8 °F 81% 30.14 in 10.0 mi SE 11.5 mph - N/A   Clear
1:35 AM 39.2 °F 32.0 °F 33.8 °F 81% 30.12 in 10.0 mi SE 11.5 mph - N/A   Clear
1:55 AM 39.2 °F 32.5 °F 33.8 °F 81% 30.11 in 10.0 mi SSE 10.4 mph - N/A   Clear
2:15 AM 42.8 °F 34.5 °F 33.8 °F 70% 30.09 in 10.0 mi South 18.4 mph - N/A   Clear
2:35 AM 42.8 °F 35.8 °F 32.0 °F 66% 30.09 in 10.0 mi South 13.8 mph - N/A   Clear
2:55 AM 39.2 °F 32.5 °F 32.0 °F 75% 30.08 in 10.0 mi SSE 10.4 mph - N/A   Clear
3:15 AM 39.2 °F 32.5 °F 32.0 °F 75% 30.07 in 10.0 mi SSE 10.4 mph - N/A   Clear
3:35 AM 39.2 °F 32.0 °F 30.2 °F 70% 30.05 in 10.0 mi South 11.5 mph - N/A   Clear
3:55 AM 39.2 °F 34.2 °F 30.2 °F 70% 30.04 in 10.0 mi SSE 6.9 mph - N/A   Clear
4:15 AM 39.2 °F 31.2 °F 30.2 °F 70% 30.02 in 10.0 mi South 13.8 mph - N/A   Clear
4:35 AM 39.2 °F 32.0 °F 30.2 °F 70% 30.01 in 10.0 mi SSE 11.5 mph - N/A   Clear
4:55 AM 41.0 °F 32.8 °F 30.2 °F 65% 29.99 in 10.0 mi South 16.1 mph 20.7 mph N/A   Clear
5:15 AM 42.8 °F 35.1 °F 30.2 °F 61% 29.98 in 10.0 mi South 16.1 mph 20.7 mph N/A   Clear
5:35 AM 42.8 °F 35.4 °F 30.2 °F 61% 29.98 in 10.0 mi South 15.0 mph - N/A   Clear
5:55 AM 42.8 °F 35.1 °F 30.2 °F 61% 29.96 in 10.0 mi South 16.1 mph - N/A   Clear
6:15 AM 42.8 °F 35.8 °F 30.2 °F 61% 29.95 in 10.0 mi South 13.8 mph 19.6 mph N/A   Clear
6:35 AM 42.8 °F 35.8 °F 30.2 °F 61% 29.94 in 10.0 mi South 13.8 mph - N/A   Clear
6:55 AM 42.8 °F 36.6 °F 28.4 °F 57% 29.94 in 10.0 mi South 11.5 mph 19.6 mph N/A   Clear
7:15 AM 42.8 °F 34.8 °F 28.4 °F 57% 29.93 in 10.0 mi South 17.3 mph - N/A   Clear
7:35 AM 42.8 °F 36.2 °F 28.4 °F 57% 29.93 in 10.0 mi South 12.7 mph 18.4 mph N/A   Clear
7:55 AM 44.6 °F 37.8 °F 30.2 °F 57% 29.91 in 10.0 mi SSW 15.0 mph 19.6 mph N/A   Clear
8:15 AM 46.4 °F 39.8 °F 30.2 °F 53% 29.92 in 10.0 mi SSW 16.1 mph - N/A   Clear
8:35 AM 46.4 °F 38.5 °F 30.2 °F 53% 29.91 in 10.0 mi SSW 21.9 mph 26.5 mph N/A   Clear
8:55 AM 46.4 °F 37.7 °F 30.2 °F 53% 29.89 in 10.0 mi SSW 26.5 mph 29.9 mph N/A   Clear
9:15 AM 48.2 °F - 30.2 °F 50% 29.89 in 10.0 mi SSW 25.3 mph - N/A   Clear
9:35 AM 48.2 °F - 30.2 °F 50% 29.90 in 10.0 mi SSW 21.9 mph 27.6 mph N/A   Clear
9:55 AM 50.0 °F - 30.2 °F 47% 29.88 in 10.0 mi SSW 25.3 mph 31.1 mph N/A   Clear
10:15 AM 51.8 °F - 30.2 °F 44% 29.89 in 10.0 mi SSW 24.2 mph 32.2 mph N/A   Clear
10:35 AM 53.6 °F - 32.0 °F 44% 29.88 in 10.0 mi SW 21.9 mph 27.6 mph N/A   Clear
10:55 AM 53.6 °F - 32.0 °F 44% 29.87 in 10.0 mi SW 24.2 mph 33.4 mph N/A   Clear
11:15 AM 55.4 °F - 33.8 °F 44% 29.86 in 10.0 mi SSW 24.2 mph 31.1 mph N/A   Clear
11:35 AM 57.2 °F - 33.8 °F 41% 29.85 in 10.0 mi SSW 20.7 mph 32.2 mph N/A   Clear
11:55 AM 57.2 °F - 33.8 °F 41% 29.83 in 10.0 mi SSW 28.8 mph 36.8 mph N/A   Clear
12:15 PM 60.8 °F - 33.8 °F 36% 29.82 in 10.0 mi SSW 27.6 mph 33.4 mph N/A   Clear
12:35 PM 62.6 °F - 35.6 °F 37% 29.80 in 10.0 mi SSW 32.2 mph 36.8 mph N/A   Clear
12:55 PM 62.6 °F - 33.8 °F 34% 29.80 in 10.0 mi SSW 28.8 mph 36.8 mph N/A   Clear
1:15 PM 64.4 °F - 33.8 °F 32% 29.79 in 10.0 mi SSW 27.6 mph 36.8 mph N/A   Clear
1:35 PM 64.4 °F - 35.6 °F 34% 29.79 in 10.0 mi SW 29.9 mph 33.4 mph N/A   Clear
1:55 PM 66.2 °F - 35.6 °F 32% 29.78 in 10.0 mi SSW 27.6 mph 31.1 mph N/A   Clear
2:15 PM 66.2 °F - 35.6 °F 32% 29.78 in 10.0 mi SW 24.2 mph 34.5 mph N/A   Clear
2:35 PM 68.0 °F - 35.6 °F 30% 29.78 in 10.0 mi SW 23.0 mph 32.2 mph N/A   Clear
2:55 PM 68.0 °F - 37.4 °F 33% 29.79 in 10.0 mi SW 23.0 mph 27.6 mph N/A   Clear
3:15 PM 69.8 °F - 35.6 °F 28% 29.79 in 10.0 mi SW 24.2 mph - N/A   Clear
3:35 PM 69.8 °F - 35.6 °F 28% 29.80 in 10.0 mi SW 17.3 mph 24.2 mph N/A   Clear
3:55 PM 69.8 °F - 37.4 °F 31% 29.80 in 10.0 mi SW 15.0 mph - N/A   Clear
4:15 PM 69.8 °F - 37.4 °F 31% 29.81 in 10.0 mi SW 12.7 mph - N/A   Clear
4:35 PM 68.0 °F - 37.4 °F 33% 29.81 in 10.0 mi SW 12.7 mph - N/A   Clear
4:55 PM 66.2 °F - 37.4 °F 35% 29.81 in 10.0 mi SW 10.4 mph - N/A   Clear
5:15 PM 64.4 °F - 37.4 °F 37% 29.82 in 10.0 mi WSW 6.9 mph - N/A   Clear
5:35 PM 62.6 °F - 37.4 °F 39% 29.83 in 10.0 mi WSW 6.9 mph - N/A   Clear
5:55 PM 59.0 °F - 37.4 °F 45% 29.83 in 10.0 mi WSW 8.1 mph - N/A   Clear
6:15 PM 59.0 °F - 37.4 °F 45% 29.84 in 10.0 mi Calm Calm - N/A   Clear
6:35 PM 57.2 °F - 35.6 °F 44% 29.85 in 10.0 mi West 4.6 mph - N/A   Clear
6:55 PM 55.4 °F - 35.6 °F 47% 29.85 in 10.0 mi NW 4.6 mph - N/A   Clear
7:15 PM 53.6 °F - 35.6 °F 51% 29.86 in 10.0 mi NW 3.5 mph - N/A   Clear
7:35 PM 51.8 °F - 35.6 °F 54% 29.87 in 10.0 mi WNW 3.5 mph - N/A   Clear
7:55 PM 53.6 °F - 35.6 °F 51% 29.87 in 10.0 mi Calm Calm - N/A   Clear
8:15 PM 53.6 °F - 35.6 °F 51% 29.87 in 10.0 mi Calm Calm - N/A   Clear
8:35 PM 44.6 °F 39.7 °F 35.6 °F 71% 29.88 in 10.0 mi SE 9.2 mph - N/A   Clear
8:55 PM 46.4 °F 44.3 °F 35.6 °F 66% 29.89 in 10.0 mi South 4.6 mph - N/A   Clear
9:15 PM 48.2 °F - 35.6 °F 62% 29.89 in 10.0 mi SSW 5.8 mph - N/A   Clear
9:35 PM 48.2 °F - 35.6 °F 62% 29.90 in 10.0 mi SSW 4.6 mph - N/A   Clear
9:55 PM 48.2 °F - 35.6 °F 62% 29.91 in 10.0 mi SW 5.8 mph - N/A   Clear
10:15 PM 46.4 °F - 33.8 °F 62% 29.92 in 10.0 mi Calm Calm - N/A   Clear
10:35 PM 42.8 °F 40.1 °F 35.6 °F 76% 29.93 in 10.0 mi East 4.6 mph - N/A   Clear
10:55 PM 42.8 °F 41.1 °F 33.8 °F 70% 29.93 in 10.0 mi ENE 3.5 mph - N/A   Clear
11:15 PM 42.8 °F - 33.8 °F 70% 29.93 in 10.0 mi Calm Calm - N/A   Clear
11:35 PM 42.8 °F - 33.8 °F 70% 29.94 in 10.0 mi Calm Calm - N/A   Clear
11:55 PM 42.8 °F - 33.8 °F 70% 29.94 in 10.0 mi Calm Calm - N/A   Clear